Time,TemperatureF,DewpointF,PressureIn,WindDirection,WindDirectionDegrees,WindSpeedMPH,WindSpeedGustMPH,Humidity,HourlyPrecipIn,Conditions,Clouds,dailyrainin,SoftwareType,DateUTC
2015-07-03 00:02:00,73.0,60.0,29.81,WNW,286,0.0,0.0,63,-99.99,,,-99.99,,2015-07-03 07:02:00,
2015-07-03 00:12:00,72.0,59.0,29.81,WNW,285,0.0,0.0,63,-99.99,,,-99.99,,2015-07-03 07:12:00,
2015-07-03 00:22:00,71.0,58.0,29.81,WNW,285,0.0,0.0,64,-99.99,,,-99.99,,2015-07-03 07:22:00,
2015-07-03 00:33:00,71.0,59.0,29.82,WNW,286,0.0,0.0,65,-99.99,,,-99.99,,2015-07-03 07:33:00,
2015-07-03 00:43:00,70.0,58.0,29.81,WNW,286,0.0,0.0,66,-99.99,,,-99.99,,2015-07-03 07:43:00,
2015-07-03 01:02:00,69.0,57.0,29.82,WNW,285,0.0,0.0,65,-99.99,,,-99.99,,2015-07-03 08:02:00,
2015-07-03 01:12:00,68.0,56.0,29.82,WNW,285,0.0,0.0,65,-99.99,,,-99.99,,2015-07-03 08:12:00,
2015-07-03 01:22:00,68.0,56.0,29.82,WNW,285,0.0,0.0,65,-99.99,,,-99.99,,2015-07-03 08:22:00,
2015-07-03 01:33:00,67.0,55.0,29.83,WNW,286,0.0,0.0,66,-99.99,,,-99.99,,2015-07-03 08:33:00,
2015-07-03 01:43:00,67.0,55.0,29.82,WNW,286,0.0,0.0,66,-99.99,,,-99.99,,2015-07-03 08:43:00,
2015-07-03 01:53:00,67.0,55.0,29.82,WNW,286,0.0,0.0,66,-99.99,,,-99.99,,2015-07-03 08:53:00,
2015-07-03 02:02:00,66.0,55.0,29.82,WNW,284,0.0,0.0,67,-99.99,,,-99.99,,2015-07-03 09:02:00,
2015-07-03 02:12:00,66.0,55.0,29.82,WNW,285,0.0,0.0,67,-99.99,,,-99.99,,2015-07-03 09:12:00,
2015-07-03 02:22:00,65.0,54.0,29.83,WNW,285,0.0,0.0,67,-99.99,,,-99.99,,2015-07-03 09:22:00,
2015-07-03 02:33:00,65.0,54.0,29.83,WNW,285,0.0,0.0,68,-99.99,,,-99.99,,2015-07-03 09:33:00,
2015-07-03 02:43:00,65.0,55.0,29.83,WNW,284,0.0,0.0,69,-99.99,,,-99.99,,2015-07-03 09:43:00,
2015-07-03 02:53:00,64.0,54.0,29.83,WNW,285,0.0,0.0,69,-99.99,,,-99.99,,2015-07-03 09:53:00,
2015-07-03 03:02:00,64.0,53.0,29.83,WNW,285,0.0,0.0,67,-99.99,,,-99.99,,2015-07-03 10:02:00,
2015-07-03 03:12:00,63.0,52.0,29.83,WNW,284,0.0,0.0,68,-99.99,,,-99.99,,2015-07-03 10:12:00,
2015-07-03 03:22:00,63.0,53.0,29.83,WNW,286,0.0,0.0,70,-99.99,,,-99.99,,2015-07-03 10:22:00,
2015-07-03 03:33:00,63.0,53.0,29.83,WNW,286,0.0,0.0,69,-99.99,,,-99.99,,2015-07-03 10:33:00,
2015-07-03 03:43:00,63.0,53.0,29.83,WNW,285,0.0,0.0,70,-99.99,,,-99.99,,2015-07-03 10:43:00,
2015-07-03 03:53:00,62.0,51.0,29.83,WNW,285,0.0,0.0,68,-99.99,,,-99.99,,2015-07-03 10:53:00,
2015-07-03 04:03:00,62.0,52.0,29.83,WNW,285,0.0,0.0,69,-99.99,,,-99.99,,2015-07-03 11:03:00,
2015-07-03 04:12:00,62.0,52.0,29.83,WNW,285,0.0,0.0,69,-99.99,,,-99.99,,2015-07-03 11:12:00,
2015-07-03 04:23:00,61.0,51.0,29.83,WNW,284,0.0,0.0,70,-99.99,,,-99.99,,2015-07-03 11:23:00,
2015-07-03 04:33:00,61.0,52.0,29.83,WNW,286,0.0,0.0,71,-99.99,,,-99.99,,2015-07-03 11:33:00,
2015-07-03 04:43:00,61.0,52.0,29.83,WNW,285,0.0,0.0,71,-99.99,,,-99.99,,2015-07-03 11:43:00,
2015-07-03 04:53:00,61.0,52.0,29.83,WNW,285,0.0,0.0,72,-99.99,,,-99.99,,2015-07-03 11:53:00,
2015-07-03 05:03:00,60.0,50.0,29.83,WNW,285,0.0,0.0,70,-99.99,,,-99.99,,2015-07-03 12:03:00,
2015-07-03 05:12:00,60.0,51.0,29.83,WNW,285,0.0,0.0,71,-99.99,,,-99.99,,2015-07-03 12:12:00,
2015-07-03 05:23:00,60.0,51.0,29.84,WNW,286,0.0,0.0,73,-99.99,,,-99.99,,2015-07-03 12:23:00,
2015-07-03 05:33:00,60.0,51.0,29.84,WNW,285,0.0,0.0,72,-99.99,,,-99.99,,2015-07-03 12:33:00,
2015-07-03 05:43:00,59.0,50.0,29.84,WNW,286,0.0,0.0,73,-99.99,,,-99.99,,2015-07-03 12:43:00,
2015-07-03 05:53:00,59.0,50.0,29.85,WNW,284,0.0,0.0,73,-99.99,,,-99.99,,2015-07-03 12:53:00,
2015-07-03 06:03:00,59.0,51.0,29.85,WNW,285,0.0,0.0,74,-99.99,,,-99.99,,2015-07-03 13:03:00,
2015-07-03 06:12:00,59.0,51.0,29.85,WNW,285,0.0,0.0,74,-99.99,,,-99.99,,2015-07-03 13:12:00,
2015-07-03 06:23:00,59.0,51.0,29.86,WNW,284,0.0,0.0,74,-99.99,,,-99.99,,2015-07-03 13:23:00,
2015-07-03 06:33:00,59.0,51.0,29.86,WNW,285,0.0,0.0,75,-99.99,,,-99.99,,2015-07-03 13:33:00,
2015-07-03 06:43:00,59.0,51.0,29.86,WNW,284,0.0,0.0,75,-99.99,,,-99.99,,2015-07-03 13:43:00,
2015-07-03 06:53:00,59.0,51.0,29.86,WNW,284,0.0,0.0,75,-99.99,,,-99.99,,2015-07-03 13:53:00,
2015-07-03 07:02:00,59.0,51.0,29.86,WNW,286,0.0,0.0,74,-99.99,,,-99.99,,2015-07-03 14:02:00,
2015-07-03 07:12:00,59.0,51.0,29.86,WNW,285,0.0,0.0,74,-99.99,,,-99.99,,2015-07-03 14:12:00,
2015-07-03 07:22:00,60.0,52.0,29.87,WNW,285,0.0,0.0,75,-99.99,,,-99.99,,2015-07-03 14:22:00,
2015-07-03 07:33:00,60.0,52.0,29.87,WNW,285,0.0,0.0,75,-99.99,,,-99.99,,2015-07-03 14:33:00,
2015-07-03 07:43:00,61.0,53.0,29.87,WNW,285,0.0,0.0,75,-99.99,,,-99.99,,2015-07-03 14:43:00,
2015-07-03 08:02:00,62.0,54.0,29.87,WNW,285,0.0,0.0,75,-99.99,,,-99.99,,2015-07-03 15:02:00,
2015-07-03 08:12:00,63.0,55.0,29.87,WNW,285,0.0,0.0,74,-99.99,,,-99.99,,2015-07-03 15:12:00,
2015-07-03 08:23:00,64.0,54.0,29.87,WNW,285,0.0,0.0,71,-99.99,,,-99.99,,2015-07-03 15:23:00,
2015-07-03 08:33:00,65.0,55.0,29.87,WNW,285,0.0,0.0,70,-99.99,,,-99.99,,2015-07-03 15:33:00,
2015-07-03 08:43:00,67.0,55.0,29.86,WNW,285,0.0,0.0,66,-99.99,,,-99.99,,2015-07-03 15:43:00,
2015-07-03 08:53:00,69.0,56.0,29.87,WNW,284,0.0,0.0,63,-99.99,,,-99.99,,2015-07-03 15:53:00,
2015-07-03 09:04:00,70.0,55.0,29.87,WNW,284,0.0,0.0,60,-99.99,,,-99.99,,2015-07-03 16:04:00,
2015-07-03 09:13:00,71.0,56.0,29.87,WNW,286,0.0,0.0,59,-99.99,,,-99.99,,2015-07-03 16:13:00,
2015-07-03 09:23:00,72.0,56.0,29.87,WNW,285,0.0,-999.0,58,-99.99,,,-99.99,,2015-07-03 16:23:00,
2015-07-03 09:33:00,75.0,56.0,29.87,WNW,284,0.0,0.0,52,-99.99,,,-99.99,,2015-07-03 16:33:00,
2015-07-03 09:43:00,77.0,57.0,29.86,WNW,285,0.0,0.0,51,-99.99,,,-99.99,,2015-07-03 16:43:00,
2015-07-03 09:53:00,80.0,57.0,29.86,WNW,285,0.0,0.0,46,-99.99,,,-99.99,,2015-07-03 16:53:00,
2015-07-03 10:03:00,81.0,58.0,29.86,South,172,0.0,2.0,46,-99.99,,,-99.99,,2015-07-03 17:03:00,
2015-07-03 10:13:00,82.0,59.0,29.86,SW,216,0.0,0.0,45,-99.99,,,-99.99,,2015-07-03 17:13:00,
2015-07-03 10:23:00,83.0,55.0,29.85,SSW,211,0.0,0.0,39,-99.99,,,-99.99,,2015-07-03 17:23:00,
2015-07-03 10:33:00,83.0,55.0,29.85,SSW,211,0.0,0.0,38,-99.99,,,-99.99,,2015-07-03 17:33:00,
2015-07-03 10:43:00,84.0,57.0,29.85,SSW,210,0.0,0.0,40,-99.99,,,-99.99,,2015-07-03 17:43:00,
2015-07-03 11:03:00,86.0,58.0,29.84,SSE,168,0.0,0.0,39,-99.99,,,-99.99,,2015-07-03 18:03:00,
2015-07-03 11:12:00,87.0,58.0,29.84,North,10,0.0,1.0,37,-99.99,,,-99.99,,2015-07-03 18:12:00,
2015-07-03 11:23:00,87.0,57.0,29.84,North,9,0.0,0.0,36,-99.99,,,-99.99,,2015-07-03 18:23:00,
2015-07-03 11:33:00,87.0,58.0,29.83,North,11,0.0,0.0,38,-99.99,,,-99.99,,2015-07-03 18:33:00,
2015-07-03 11:43:00,86.0,56.0,29.83,North,11,0.0,0.0,36,-99.99,,,-99.99,,2015-07-03 18:43:00,
2015-07-03 11:53:00,86.0,56.0,29.83,North,11,0.0,0.0,36,-99.99,,,-99.99,,2015-07-03 18:53:00,
2015-07-03 12:03:00,86.0,57.0,29.83,NE,43,0.0,0.0,37,-99.99,,,-99.99,,2015-07-03 19:03:00,
2015-07-03 12:12:00,88.0,57.0,29.83,NE,43,0.0,0.0,35,-99.99,,,-99.99,,2015-07-03 19:12:00,
2015-07-03 12:23:00,87.0,58.0,29.83,NE,43,0.0,0.0,37,-99.99,,,-99.99,,2015-07-03 19:23:00,
2015-07-03 12:34:00,87.0,58.0,29.83,NE,43,0.0,0.0,37,-99.99,,,-99.99,,2015-07-03 19:34:00,
2015-07-03 12:43:00,88.0,57.0,29.83,NE,43,0.0,0.0,35,-99.99,,,-99.99,,2015-07-03 19:43:00,
2015-07-03 12:53:00,89.0,59.0,29.83,West,271,0.0,2.0,36,-99.99,,,-99.99,,2015-07-03 19:53:00,
2015-07-03 13:03:00,89.0,58.0,29.82,NW,307,0.0,1.0,35,-99.99,,,-99.99,,2015-07-03 20:03:00,
2015-07-03 13:12:00,91.0,59.0,29.82,SSW,212,0.0,0.0,35,-99.99,,,-99.99,,2015-07-03 20:12:00,
2015-07-03 13:22:00,94.0,60.0,29.82,WSW,257,0.0,1.0,32,-99.99,,,-99.99,,2015-07-03 20:22:00,
2015-07-03 13:33:00,93.0,59.0,29.81,WNW,298,0.0,2.0,32,-99.99,,,-99.99,,2015-07-03 20:33:00,
2015-07-03 13:43:00,92.0,59.0,29.81,WNW,298,0.0,0.0,33,-99.99,,,-99.99,,2015-07-03 20:43:00,
2015-07-03 13:53:00,93.0,59.0,29.81,ESE,116,0.0,2.0,32,-99.99,,,-99.99,,2015-07-03 20:53:00,
2015-07-03 14:03:00,95.0,59.0,29.80,West,261,0.0,2.0,30,-99.99,,,-99.99,,2015-07-03 21:03:00,
2015-07-03 14:12:00,96.0,59.0,29.80,West,261,0.0,3.0,30,-99.99,,,-99.99,,2015-07-03 21:12:00,
2015-07-03 14:23:00,96.0,59.0,29.80,North,9,0.0,3.0,29,-99.99,,,-99.99,,2015-07-03 21:23:00,
2015-07-03 14:33:00,96.0,59.0,29.79,NE,44,0.0,2.0,29,-99.99,,,-99.99,,2015-07-03 21:33:00,
2015-07-03 14:43:00,96.0,58.0,29.78,NW,326,0.0,2.0,28,-99.99,,,-99.99,,2015-07-03 21:43:00,
2015-07-03 15:02:00,95.0,56.0,29.78,South,174,0.0,4.0,27,-99.99,,,-99.99,,2015-07-03 22:02:00,
2015-07-03 15:12:00,94.0,55.0,29.78,South,172,0.0,4.0,27,-99.99,,,-99.99,,2015-07-03 22:12:00,
2015-07-03 15:22:00,95.0,56.0,29.78,South,172,0.0,0.0,27,-99.99,,,-99.99,,2015-07-03 22:22:00,
2015-07-03 15:33:00,96.0,51.0,29.77,South,172,0.0,0.0,22,-99.99,,,-99.99,,2015-07-03 22:33:00,
2015-07-03 15:43:00,99.0,55.0,29.77,South,172,0.0,0.0,23,-99.99,,,-99.99,,2015-07-03 22:43:00,
2015-07-03 15:53:00,99.0,47.0,29.77,West,259,0.0,2.0,17,-99.99,,,-99.99,,2015-07-03 22:53:00,
2015-07-03 16:12:00,99.0,43.0,29.76,WNW,303,0.0,3.0,15,-99.99,,,-99.99,,2015-07-03 23:12:00,
2015-07-03 16:23:00,99.0,41.0,29.75,SW,222,0.0,1.0,14,-99.99,,,-99.99,,2015-07-03 23:23:00,
2015-07-03 16:33:00,100.0,44.0,29.75,SE,139,0.0,1.0,15,-99.99,,,-99.99,,2015-07-03 23:33:00,
2015-07-03 16:43:00,99.0,47.0,29.75,South,178,0.0,0.0,17,-99.99,,,-99.99,,2015-07-03 23:43:00,
2015-07-03 16:53:00,98.0,47.0,29.75,West,266,0.0,2.0,18,-99.99,,,-99.99,,2015-07-03 23:53:00,
2015-07-03 17:03:00,98.0,49.0,29.75,South,187,0.0,1.0,19,-99.99,,,-99.99,,2015-07-04 00:03:00,
2015-07-03 17:12:00,98.0,51.0,29.74,South,187,0.0,0.0,21,-99.99,,,-99.99,,2015-07-04 00:12:00,
2015-07-03 17:23:00,97.0,55.0,29.74,SW,217,0.0,0.0,25,-99.99,,,-99.99,,2015-07-04 00:23:00,
2015-07-03 17:33:00,96.0,53.0,29.74,SW,217,0.0,0.0,24,-99.99,,,-99.99,,2015-07-04 00:33:00,
2015-07-03 17:43:00,95.0,50.0,29.74,WSW,253,0.0,0.0,22,-99.99,,,-99.99,,2015-07-04 00:43:00,
2015-07-03 17:53:00,96.0,53.0,29.74,WSW,253,0.0,0.0,24,-99.99,,,-99.99,,2015-07-04 00:53:00,
2015-07-03 18:02:00,96.0,54.0,29.74,WSW,253,0.0,0.0,25,-99.99,,,-99.99,,2015-07-04 01:02:00,
2015-07-03 18:12:00,95.0,55.0,29.73,WSW,253,0.0,0.0,26,-99.99,,,-99.99,,2015-07-04 01:12:00,
2015-07-03 18:22:00,95.0,54.0,29.74,West,262,0.0,2.0,25,-99.99,,,-99.99,,2015-07-04 01:22:00,
2015-07-03 18:33:00,94.0,57.0,29.74,West,262,0.0,0.0,29,-99.99,,,-99.99,,2015-07-04 01:33:00,
2015-07-03 18:53:00,92.0,56.0,29.74,West,262,0.0,0.0,30,-99.99,,,-99.99,,2015-07-04 01:53:00,
2015-07-03 19:53:00,88.0,61.0,29.75,West,262,0.0,0.0,41,-99.99,,,-99.99,,2015-07-04 02:53:00,
2015-07-03 20:43:00,82.0,61.0,29.75,West,262,0.0,0.0,50,-99.99,,,-99.99,,2015-07-04 03:43:00,
2015-07-03 21:12:00,80.0,60.0,29.77,West,262,0.0,0.0,50,-99.99,,,-99.99,,2015-07-04 04:12:00,
2015-07-03 21:23:00,79.0,59.0,29.77,West,262,0.0,0.0,51,-99.99,,,-99.99,,2015-07-04 04:23:00,
2015-07-03 22:03:00,76.0,59.0,29.78,West,262,0.0,0.0,56,-99.99,,,-99.99,,2015-07-04 05:03:00,
2015-07-03 22:12:00,75.0,59.0,29.78,West,261,0.0,0.0,57,-99.99,,,-99.99,,2015-07-04 05:12:00,